• In Netherlands
  • List of Countries
  • For 7 days
  • Water Temperature
  • Satellite Maps
  • Weather Map
  • Weather Widgets
  • user-avatar
    Login

    Hourly Weather Abovyan

    Today, 19 September, Tuesday

    Time Temperature Precipitation Wind Pressure Humidity
    00:00 +20°C° 0.5 mm 2 mps 674 mmHg 58%
    01:00 +21°C° 0 mm 1 mps 674 mmHg 59%
    02:00 +20°C° 0 mm 1 mps 674 mmHg 60%
    03:00 +19°C° 0 mm 2 mps 674 mmHg 58%
    04:00 +20°C° 0 mm 1 mps 673 mmHg 58%
    05:00 +20°C° 0 mm 1 mps 673 mmHg 58%
    06:00 +19°C° 0 mm 1 mps 673 mmHg 57%
    07:00 +22°C° 0 mm 1 mps 674 mmHg 48%
    08:00 +24°C° 0 mm 1 mps 674 mmHg 39%
    09:00 +27°C° 0 mm 1 mps 675 mmHg 28%
    10:00 +28°C° 0 mm 2 mps 675 mmHg 25%
    11:00 +29°C° 0 mm 2 mps 675 mmHg 22%
    12:00 +30°C° 0 mm 2 mps 675 mmHg 20%
    13:00 +31°C° 0 mm 2 mps 675 mmHg 19%
    14:00 +31°C° 0 mm 2 mps 674 mmHg 18%
    15:00 +31°C° 0 mm 2 mps 674 mmHg 18%
    16:00 +29°C° 0 mm 2 mps 674 mmHg 22%
    17:00 +27°C° 0 mm 1 mps 673 mmHg 25%
    18:00 +25°C° 0 mm 1 mps 673 mmHg 29%
    19:00 +24°C° 0 mm 1 mps 673 mmHg 32%
    20:00 +23°C° 0 mm 1 mps 673 mmHg 35%
    21:00 +23°C° 0 mm 2 mps 674 mmHg 39%
    22:00 +21°C° 0 mm 2 mps 674 mmHg 42%
    23:00 +21°C° 0 mm 2 mps 674 mmHg 45%

    Tomorrow, 20 September, Wednesday

    Time Temperature Precipitation Wind Pressure Humidity
    00:00 +20°C° 0 mm 2 mps 674 mmHg 48%
    01:00 +21°C° 0 mm 1 mps 674 mmHg 49%
    02:00 +20°C° 0 mm 1 mps 674 mmHg 51%
    03:00 +20°C° 0 mm 1 mps 674 mmHg 52%
    04:00 +19°C° 0 mm 1 mps 673 mmHg 52%
    05:00 +19°C° 0 mm 1 mps 673 mmHg 53%
    06:00 +19°C° 0 mm 1 mps 673 mmHg 53%
    07:00 +21°C° 0 mm 1 mps 674 mmHg 44%
    08:00 +24°C° 0 mm 1 mps 674 mmHg 35%
    09:00 +27°C° 0 mm 1 mps 675 mmHg 26%
    10:00 +28°C° 0 mm 2 mps 675 mmHg 23%
    11:00 +30°C° 0 mm 2 mps 675 mmHg 21%
    12:00 +31°C° 0 mm 2 mps 675 mmHg 18%
    13:00 +31°C° 0 mm 2 mps 674 mmHg 18%
    14:00 +32°C° 0 mm 2 mps 674 mmHg 17%
    15:00 +32°C° 0 mm 2 mps 674 mmHg 17%
    16:00 +30°C° 0 mm 2 mps 673 mmHg 20%
    17:00 +28°C° 0 mm 2 mps 673 mmHg 24%
    18:00 +25°C° 0 mm 1 mps 673 mmHg 27%
    19:00 +24°C° 0 mm 2 mps 673 mmHg 32%
    20:00 +24°C° 0 mm 2 mps 673 mmHg 36%
    21:00 +23°C° 0 mm 2 mps 673 mmHg 41%
    22:00 +21°C° 0 mm 2 mps 673 mmHg 44%
    23:00 +21°C° 0 mm 2 mps 673 mmHg 47%

    Day after tomorrow, 21 September, Thursday

    Time Temperature Precipitation Wind Pressure Humidity
    00:00 +20°C° 0 mm 2 mps 673 mmHg 51%
    01:00 +20°C° 0 mm 2 mps 673 mmHg 52%
    02:00 +20°C° 0 mm 1 mps 673 mmHg 53%
    03:00 +20°C° 0 mm 1 mps 673 mmHg 54%
    04:00 +20°C° 0 mm 1 mps 672 mmHg 53%
    05:00 +19°C° 0 mm 1 mps 672 mmHg 52%
    06:00 +19°C° 0 mm 1 mps 672 mmHg 52%
    07:00 +22°C° 0 mm 1 mps 673 mmHg 42%
    08:00 +25°C° 0 mm 1 mps 673 mmHg 33%
    09:00 +28°C° 0 mm 1 mps 674 mmHg 23%
    10:00 +29°C° 0 mm 2 mps 674 mmHg 22%
    11:00 +30°C° 0 mm 2 mps 674 mmHg 20%
    12:00 +31°C° 0 mm 2 mps 673 mmHg 18%
    13:00 +32°C° 0 mm 2 mps 673 mmHg 18%
    14:00 +32°C° 0 mm 2 mps 673 mmHg 18%
    15:00 +32°C° 0 mm 2 mps 672 mmHg 18%
    16:00 +31°C° 0 mm 2 mps 672 mmHg 22%
    17:00 +29°C° 0 mm 2 mps 672 mmHg 26%
    18:00 +27°C° 0 mm 2 mps 671 mmHg 30%
    19:00 +26°C° 0 mm 2 mps 672 mmHg 34%
    20:00 +25°C° 0 mm 2 mps 672 mmHg 39%
    21:00 +24°C° 0 mm 2 mps 672 mmHg 43%
    22:00 +23°C° 0 mm 2 mps 672 mmHg 47%
    23:00 +23°C° 0 mm 2 mps 672 mmHg 50%

    22 September, Friday

    Time Temperature Precipitation Wind Pressure Humidity
    00:00 +21°C° 0 mm 2 mps 672 mmHg 54%
    01:00 +20°C° 0 mm 2 mps 672 mmHg 56%
    02:00 +20°C° 0 mm 2 mps 672 mmHg 58%
    03:00 +19°C° 0 mm 2 mps 672 mmHg 60%
    04:00 +19°C° 0 mm 2 mps 672 mmHg 61%
    05:00 +18°C° 0 mm 2 mps 672 mmHg 62%
    06:00 +19°C° 0 mm 1 mps 672 mmHg 63%
    07:00 +22°C° 0 mm 1 mps 672 mmHg 52%
    08:00 +24°C° 0 mm 1 mps 672 mmHg 42%
    09:00 +27°C° 0 mm 2 mps 673 mmHg 31%
    10:00 +28°C° 0 mm 2 mps 673 mmHg 28%
    11:00 +29°C° 0 mm 2 mps 672 mmHg 24%
    12:00 +31°C° 0 mm 2 mps 672 mmHg 21%
    13:00 +31°C° 0 mm 2 mps 672 mmHg 21%
    14:00 +31°C° 0 mm 2 mps 672 mmHg 20%
    15:00 +31°C° 0 mm 2 mps 671 mmHg 20%
    16:00 +29°C° 0.1 mm 2 mps 671 mmHg 25%
    17:00 +27°C° 0.1 mm 2 mps 671 mmHg 29%
    18:00 +25°C° 0.1 mm 1 mps 671 mmHg 34%
    19:00 +24°C° 0.1 mm 2 mps 671 mmHg 40%
    20:00 +23°C° 0.1 mm 2 mps 672 mmHg 45%
    21:00 +21°C° 0.1 mm 3 mps 672 mmHg 50%
    22:00 +20°C° 0.1 mm 3 mps 672 mmHg 52%
    23:00 +20°C° 0.1 mm 2 mps 672 mmHg 53%

    23 September, Saturday

    Time Temperature Precipitation Wind Pressure Humidity
    00:00 +19°C° 0.1 mm 2 mps 672 mmHg 55%
    01:00 +19°C° 0.1 mm 2 mps 672 mmHg 55%
    02:00 +18°C° 0.1 mm 2 mps 672 mmHg 55%
    03:00 +18°C° 0.1 mm 2 mps 672 mmHg 55%
    04:00 +18°C° 0.1 mm 2 mps 672 mmHg 56%
    05:00 +17°C° 0.1 mm 2 mps 673 mmHg 57%
    06:00 +17°C° 0.1 mm 2 mps 673 mmHg 57%
    07:00 +19°C° 0.1 mm 2 mps 673 mmHg 51%
    08:00 +23°C° 0.1 mm 1 mps 674 mmHg 44%
    09:00 +25°C° 0.1 mm 1 mps 674 mmHg 38%
    10:00 +26°C° 0.1 mm 1 mps 674 mmHg 34%
    11:00 +28°C° 0.1 mm 2 mps 674 mmHg 31%
    12:00 +29°C° 0.1 mm 2 mps 674 mmHg 28%
    13:00 +29°C° 0.2 mm 2 mps 674 mmHg 27%
    14:00 +30°C° 0.2 mm 2 mps 674 mmHg 27%
    15:00 +30°C° 0.2 mm 2 mps 674 mmHg 26%
    16:00 +28°C° 0.2 mm 2 mps 673 mmHg 30%
    17:00 +26°C° 0.2 mm 2 mps 673 mmHg 35%
    18:00 +24°C° 0.2 mm 1 mps 673 mmHg 40%
    19:00 +23°C° 0.1 mm 2 mps 673 mmHg 43%
    20:00 +21°C° 0.1 mm 2 mps 674 mmHg 47%
    21:00 +20°C° 0.1 mm 2 mps 674 mmHg 50%
    22:00 +20°C° 0 mm 2 mps 674 mmHg 51%
    23:00 +19°C° 0 mm 2 mps 674 mmHg 52%

    24 September, Sunday

    Time Temperature Precipitation Wind Pressure Humidity
    00:00 +19°C° 0 mm 2 mps 674 mmHg 53%
    01:00 +18°C° 0.1 mm 2 mps 674 mmHg 54%
    02:00 +18°C° 0.1 mm 2 mps 674 mmHg 55%
    03:00 +17°C° 0.1 mm 2 mps 674 mmHg 56%
    04:00 +17°C° 0.1 mm 2 mps 674 mmHg 56%
    05:00 +17°C° 0.1 mm 2 mps 674 mmHg 57%
    06:00 +16°C° 0.1 mm 2 mps 674 mmHg 58%
    07:00 +20°C° 0.1 mm 1 mps 675 mmHg 51%
    08:00 +22°C° 0.1 mm 1 mps 675 mmHg 43%
    09:00 +25°C° 0.1 mm 1 mps 675 mmHg 36%
    10:00 +26°C° 0 mm 1 mps 675 mmHg 33%
    11:00 +27°C° 0 mm 2 mps 675 mmHg 30%
    12:00 +29°C° 0 mm 2 mps 675 mmHg 27%
    13:00 +29°C° 0.2 mm 2 mps 675 mmHg 26%
    14:00 +29°C° 0.2 mm 2 mps 674 mmHg 26%
    15:00 +29°C° 0.2 mm 2 mps 674 mmHg 25%
    16:00 +27°C° 0.2 mm 2 mps 674 mmHg 30%
    17:00 +25°C° 0.2 mm 2 mps 674 mmHg 34%
    18:00 +23°C° 0.2 mm 1 mps 673 mmHg 39%
    19:00 +21°C° 0.1 mm 2 mps 674 mmHg 43%
    20:00 +21°C° 0.1 mm 2 mps 674 mmHg 46%
    21:00 +20°C° 0.1 mm 2 mps 674 mmHg 50%
    22:00 +19°C° 0 mm 2 mps 674 mmHg 51%
    23:00 +19°C° 0 mm 2 mps 674 mmHg 52%
    Show more